FLY9 NZAA-NZKK

Flight info

Callsign FLY9
Flight time 0h 24m
Altitude 19000
Route KAWAU Q520 SF H275 KK
Aircraft C25C/M-SDE2E3FGHRWXY/LB1

Departure

Time 2026-04-11 08:34
Airport Auckland International Airport (NZAA)

Arrival

Time 2026-04-11 08:58
Airport Kerikeri Airport (NZKK)
Time Latitude Longitude Altitude Speed Heading
2026-04-11 08:13 -37.00304 174.80489 19 ft 0 kts 182°
2026-04-11 08:27 -37.00306 174.80494 19 ft 1 kts 92°
2026-04-11 08:27 -37.00291 174.80491 19 ft 6 kts 325°
2026-04-11 08:27 -37.00270 174.80435 19 ft 10 kts 271°
2026-04-11 08:28 -37.00305 174.80430 19 ft 12 kts 159°
2026-04-11 08:28 -37.00417 174.80401 19 ft 17 kts 239°
2026-04-11 08:28 -37.00459 174.80258 19 ft 18 kts 251°
2026-04-11 08:28 -37.00500 174.80110 19 ft 18 kts 251°
2026-04-11 08:29 -37.00547 174.79953 19 ft 20 kts 242°
2026-04-11 08:29 -37.00607 174.79771 21 ft 26 kts 250°
2026-04-11 08:29 -37.00673 174.79528 19 ft 33 kts 251°
2026-04-11 08:29 -37.00752 174.79250 21 ft 38 kts 251°
2026-04-11 08:30 -37.00836 174.78941 19 ft 35 kts 251°
2026-04-11 08:30 -37.00914 174.78659 19 ft 33 kts 252°
2026-04-11 08:30 -37.00975 174.78433 19 ft 12 kts 251°
2026-04-11 08:30 -37.01045 174.78374 20 ft 18 kts 200°
2026-04-11 08:31 -37.01117 174.78243 19 ft 23 kts 251°
2026-04-11 08:31 -37.01178 174.78023 19 ft 29 kts 251°
2026-04-11 08:31 -37.01238 174.77806 19 ft 19 kts 248°
2026-04-11 08:31 -37.01299 174.77781 19 ft 0 kts 161°
2026-04-11 08:32 -37.01300 174.77781 19 ft 3 kts 160°
2026-04-11 08:32 -37.01408 174.77844 19 ft 20 kts 119°
2026-04-11 08:32 -37.01406 174.77898 19 ft 0 kts 72°
2026-04-11 08:33 -37.01271 174.78386 19 ft 118 kts 70°
2026-04-11 08:33 -37.00918 174.79684 397 ft 184 kts 72°
2026-04-11 08:34 -37.00311 174.81250 1363 ft 218 kts 46°
2026-04-11 08:34 -36.99496 174.82037 2112 ft 230 kts 29°
2026-04-11 08:34 -36.97916 174.82533 3321 ft 239 kts
2026-04-11 08:34 -36.96248 174.82798 4593 ft 244 kts
2026-04-11 08:35 -36.94555 174.83034 5874 ft 246 kts
2026-04-11 08:35 -36.92853 174.83317 7150 ft 248 kts
2026-04-11 08:35 -36.91141 174.83613 8429 ft 248 kts
2026-04-11 08:35 -36.89425 174.83901 9694 ft 249 kts
2026-04-11 08:36 -36.87707 174.84192 10950 ft 249 kts
2026-04-11 08:36 -36.85992 174.84477 12189 ft 248 kts
2026-04-11 08:36 -36.84286 174.84763 13407 ft 246 kts
2026-04-11 08:36 -36.82594 174.85049 14585 ft 245 kts
2026-04-11 08:37 -36.80903 174.85136 15696 ft 244 kts 349°
2026-04-11 08:37 -36.79339 174.84346 16802 ft 241 kts 335°
2026-04-11 08:37 -36.77830 174.83471 17901 ft 237 kts 334°
2026-04-11 08:37 -36.76335 174.82578 18771 ft 245 kts 334°
2026-04-11 08:38 -36.74714 174.81618 18999 ft 276 kts 334°
2026-04-11 08:38 -36.72876 174.80551 19012 ft 306 kts 334°
2026-04-11 08:38 -36.70876 174.79384 19013 ft 328 kts 334°
2026-04-11 08:38 -36.68764 174.78140 19014 ft 342 kts 334°
2026-04-11 08:39 -36.66577 174.76849 19012 ft 352 kts 334°
2026-04-11 08:39 -36.64334 174.75540 19010 ft 359 kts 334°
2026-04-11 08:39 -36.62059 174.74214 19011 ft 363 kts 334°
2026-04-11 08:39 -36.59762 174.72869 19010 ft 366 kts 334°
2026-04-11 08:40 -36.57450 174.71520 19008 ft 368 kts 334°
2026-04-11 08:40 -36.55128 174.70162 19008 ft 369 kts 334°
2026-04-11 08:40 -36.52799 174.68807 19008 ft 370 kts 334°
2026-04-11 08:40 -36.50468 174.67446 19010 ft 370 kts 334°
2026-04-11 08:41 -36.48132 174.66087 19008 ft 371 kts 334°
2026-04-11 08:41 -36.45796 174.64726 19009 ft 371 kts 335°
2026-04-11 08:41 -36.43432 174.63450 18999 ft 371 kts 340°
2026-04-11 08:41 -36.40928 174.62652 18996 ft 371 kts 346°
2026-04-11 08:42 -36.38416 174.61897 18995 ft 371 kts 346°
2026-04-11 08:42 -36.35906 174.61125 18997 ft 372 kts 345°
2026-04-11 08:42 -36.33401 174.60336 18998 ft 372 kts 345°
2026-04-11 08:43 -36.28387 174.58780 19000 ft 372 kts 346°
2026-04-11 08:43 -36.25879 174.58001 19000 ft 372 kts 346°
2026-04-11 08:43 -36.23368 174.57225 19001 ft 372 kts 346°
2026-04-11 08:43 -36.20862 174.56445 19001 ft 372 kts 346°
2026-04-11 08:44 -36.18440 174.55357 18987 ft 371 kts 333°
2026-04-11 08:44 -36.16164 174.53850 18994 ft 371 kts 331°
2026-04-11 08:44 -36.13900 174.52321 18995 ft 371 kts 331°
2026-04-11 08:44 -36.11623 174.50820 18996 ft 371 kts 332°
2026-04-11 08:45 -36.09338 174.49332 18997 ft 371 kts 332°
2026-04-11 08:45 -36.07058 174.47846 18997 ft 371 kts 332°
2026-04-11 08:45 -36.04777 174.46343 18997 ft 371 kts 332°
2026-04-11 08:45 -36.02496 174.44848 18998 ft 371 kts 332°
2026-04-11 08:46 -36.00247 174.43376 18998 ft 371 kts 332°
2026-04-11 08:46 -35.97965 174.41885 18999 ft 371 kts 332°
2026-04-11 08:46 -35.95685 174.40395 18999 ft 371 kts 332°
2026-04-11 08:46 -35.93406 174.38903 18999 ft 371 kts 332°
2026-04-11 08:47 -35.91123 174.37416 19000 ft 371 kts 332°
2026-04-11 08:47 -35.88856 174.35894 18997 ft 371 kts 329°
2026-04-11 08:47 -35.86887 174.33860 18993 ft 370 kts 316°
2026-04-11 08:47 -35.85014 174.31676 18995 ft 370 kts 316°
2026-04-11 08:48 -35.83149 174.29489 18996 ft 370 kts 316°
2026-04-11 08:48 -35.81264 174.27324 18997 ft 370 kts 317°
2026-04-11 08:48 -35.79378 174.25163 18997 ft 370 kts 317°
2026-04-11 08:48 -35.77495 174.22997 18998 ft 370 kts 316°
2026-04-11 08:49 -35.75613 174.20829 18998 ft 370 kts 316°
2026-04-11 08:49 -35.73731 174.18662 18998 ft 370 kts 316°
2026-04-11 08:49 -35.71820 174.16472 18999 ft 370 kts 317°
2026-04-11 08:49 -35.69936 174.14307 18999 ft 370 kts 316°
2026-04-11 08:50 -35.68052 174.12150 18999 ft 370 kts 317°
2026-04-11 08:50 -35.66197 174.10018 18999 ft 370 kts 317°
2026-04-11 08:50 -35.64307 174.07858 19000 ft 370 kts 316°
2026-04-11 08:50 -35.62422 174.05698 19000 ft 370 kts 317°
2026-04-11 08:51 -35.60543 174.03550 19197 ft 364 kts 316°
2026-04-11 08:51 -35.58596 174.01545 18601 ft 365 kts 327°
2026-04-11 08:51 -35.56366 174.00545 17438 ft 329 kts 345°
2026-04-11 08:51 -35.54204 173.99885 16274 ft 278 kts 346°
2026-04-11 08:52 -35.51321 173.99046 13714 ft 192 kts 346°
2026-04-11 08:52 -35.50049 173.98654 12244 ft 186 kts 346°
2026-04-11 08:52 -35.48816 173.98271 10824 ft 181 kts 345°
2026-04-11 08:53 -35.47611 173.97902 9438 ft 176 kts 345°
2026-04-11 08:53 -35.46432 173.97548 8082 ft 172 kts 346°
2026-04-11 08:53 -35.45273 173.97209 6594 ft 172 kts 346°
2026-04-11 08:53 -35.44111 173.96870 5073 ft 171 kts 346°
2026-04-11 08:54 -35.42966 173.96530 3571 ft 168 kts 346°
2026-04-11 08:54 -35.41839 173.96199 2179 ft 167 kts 346°
2026-04-11 08:54 -35.40864 173.95913 1977 ft 118 kts 346°
2026-04-11 08:54 -35.40095 173.95682 1827 ft 120 kts 346°
2026-04-11 08:55 -35.39282 173.95449 1796 ft 115 kts 345°
2026-04-11 08:55 -35.38384 173.95167 1912 ft 181 kts 345°
2026-04-11 08:55 -35.36840 173.94680 2128 ft 256 kts 345°
2026-04-11 08:55 -35.35038 173.94125 2101 ft 276 kts 345°
2026-04-11 08:56 -35.33194 173.93531 1895 ft 273 kts 345°
2026-04-11 08:56 -35.31418 173.92973 1600 ft 243 kts 345°
2026-04-11 08:56 -35.29937 173.92504 1290 ft 193 kts 345°
2026-04-11 08:56 -35.28900 173.92187 1045 ft 124 kts 346°
2026-04-11 08:57 -35.28134 173.91966 845 ft 113 kts 347°
2026-04-11 08:57 -35.27408 173.91751 799 ft 98 kts 348°
2026-04-11 08:57 -35.26696 173.91518 663 ft 109 kts 344°
2026-04-11 08:57 -35.26016 173.91292 490 ft 91 kts 344°
2026-04-11 08:58 -35.25507 173.91132 482 ft 48 kts 345°
2026-04-11 08:58 -35.25300 173.91060 479 ft 18 kts 336°
2026-04-11 08:58 -35.25298 173.91067 480 ft 10 kts 169°
2026-04-11 08:58 -35.25599 173.91161 487 ft 71 kts 167°
2026-04-11 08:59 -35.26019 173.91290 484 ft 50 kts 166°
2026-04-11 08:59 -35.26220 173.91301 491 ft 20 kts 252°
2026-04-11 08:59 -35.26273 173.91261 491 ft 6 kts 209°
2026-04-11 08:59 -35.26317 173.91193 490 ft 0 kts 166°
2026-04-11 09:00 -35.26323 173.91204 484 ft 0 kts 84°